User: anonymous   Login
Location: Peebles
(55.6412°N, 3.1714°W)
Time: 18:51:27
(UTC+00:00)
Language:

FLOCK 4S 19 - Orbit

View from above orbital plane
View from above orbital plane
View from above satellite
View from above satellite

Ground track
Ground track

The orbit data is extracted from the following two-line orbital elements,

1 47500U 21006CR  24053.15547519  .00024006  00000-0  58518-3 0  9998
2 47500  97.3549 117.5382 0005736 259.3528 100.7072 15.40880008171063
Epoch (UTC): 22 February 2024 03:43:53
Eccentricity: 0.0005736
inclination: 97.3549°
perigee height: 439 km
apogee height: 447 km
right ascension of ascending node: 117.5382°
argument of perigee: 259.3528°
revolutions per day: 15.40880008
mean anomaly at epoch: 100.7072°
orbit number at epoch: 17106

The dashed part of the orbit path shows where the satellite is in the earth's shadow,  

DLR